sat.trackr.live / text

‹ back to catalog

STARLINK-4648

NORAD 53602 · 2022-104Q

PAYLOAD ACTIVE UNKNOWN

§ Identity

Operator
Country
US
Launch date
2022-08-28
Launch site
AFETR
Launch vehicle
Mass (kg)
RCS (m²)

Purposes: comms

External: N2YO · Heavens-Above · Gunter

§ Orbital elements

Epoch: 2026-09-20T02:24:50.575104Z

Period
93.85 min
Inclination
53.1604°
Eccentricity
0.0001169
Mean motion
15.34390740 rev/d
Perigee alt
461.9 km
Apogee alt
463.5 km
Semi-major
6,840.9 km
B*
3.2987e-5
RAAN
75.2669°
Arg perigee
83.7007°
Mean anomaly
276.4128°
Rev number
22,518

§ Raw data

STARLINK-46481 53602U 22104Q   26263.10058536  .00000738  00000+0  32987-4 0  99922 53602  53.1604  75.2669 0001169  83.7007 276.4128 15.34390740225188

JSON: /api/v1/satellites/53602 · /tle

For live sub-satellite position, see the globe view (requires WebGL).

§ Visibility from observer

Set your observer location to see the next 7 days of passes ≥ 10°. The values pass through the URL so the page stays shareable.

No JS? Fill the form by hand. The geolocation button needs JavaScript.